TimePST,TemperatureF,Dew PointF,Humidity,Sea Level PressureIn,VisibilityMPH,Wind Direction,Wind SpeedMPH,Gust SpeedMPH,PrecipitationIn,Events,Conditions,WindDirDegrees,DateUTC
12:00 AM,37.4,35.6,93,30.16,6.0,East,4.6,-,N/A,Rain,Light Rain Showers,90,2013-01-04 08:00:00
12:33 AM,37.4,-9999,N/A,-9999,4.0,SE,3.5,-,N/A,,Light Drizzle,130,2013-01-04 08:33:00
1:00 AM,37.4,35.6,93,30.16,4.0,East,5.8,-,N/A,,Light Drizzle,100,2013-01-04 09:00:00
2:00 AM,37.4,35.6,93,30.18,2.2,East,3.5,-,N/A,,Light Drizzle,80,2013-01-04 10:00:00
2:24 AM,37.4,-9999,N/A,-9999,2.2,ENE,3.5,-,N/A,,Light Drizzle,60,2013-01-04 10:24:00
2:44 AM,39.2,-9999,N/A,-9999,2.2,ENE,4.6,-,N/A,,Light Drizzle,60,2013-01-04 10:44:00
3:00 AM,39.2,37.4,93,30.21,2.2,ESE,5.8,-,N/A,,Light Drizzle,110,2013-01-04 11:00:00
3:26 AM,37.4,-9999,N/A,-9999,2.0,East,4.6,-,N/A,,Light Drizzle,100,2013-01-04 11:26:00
4:00 AM,38,37,95,30.22,2,East,5.8,,,Rain,Light Drizzle,90,2013-01-04 12:00:00
4:00 AM,37.4,37.4,100,30.22,2.0,East,5.8,-,N/A,,Light Drizzle,90,2013-01-04 12:00:00
5:00 AM,39.2,37.4,93,30.23,1.5,East,5.8,-,N/A,,Light Drizzle,80,2013-01-04 13:00:00
6:00 AM,39.2,37.4,93,30.25,1.5,East,5.8,-,N/A,,Light Drizzle,90,2013-01-04 14:00:00
6:24 AM,39.2,-9999,N/A,-9999,3.0,ESE,6.9,-,N/A,,Light Drizzle,110,2013-01-04 14:24:00
7:00 AM,39.2,37.4,93,30.26,3.0,East,5.8,-,N/A,,Light Drizzle,90,2013-01-04 15:00:00
7:40 AM,39.2,-9999,N/A,-9999,7.0,East,4.6,-,N/A,,Light Drizzle,90,2013-01-04 15:40:00
8:00 AM,39.2,37.4,93,30.28,10.0,East,4.6,-,N/A,,Light Drizzle,90,2013-01-04 16:00:00
8:19 AM,39.2,-9999,N/A,-9999,6.0,East,5.8,-,N/A,,Light Drizzle,90,2013-01-04 16:19:00
8:44 AM,39.2,-9999,N/A,-9999,2.5,East,5.8,-,N/A,,Light Drizzle,90,2013-01-04 16:44:00
9:00 AM,39.2,37.4,93,30.31,2.5,ESE,5.8,-,N/A,,Light Drizzle,110,2013-01-04 17:00:00
9:37 AM,39.2,-9999,N/A,-9999,2.5,ESE,5.8,-,N/A,,Light Drizzle,110,2013-01-04 17:37:00
10:00 AM,40,39,94,30.32,2,ESE,5.8,,,Rain,Light Drizzle,110,2013-01-04 18:00:00
10:00 AM,41.0,39.2,93,30.32,2.5,ESE,5.8,-,N/A,,Light Drizzle,110,2013-01-04 18:00:00
10:23 AM,41.0,-9999,N/A,-9999,3.0,East,5.8,-,N/A,,Light Drizzle,100,2013-01-04 18:23:00
11:00 AM,41.0,39.2,93,30.32,4.0,ESE,5.8,-,N/A,,Light Drizzle,110,2013-01-04 19:00:00
11:19 AM,41.0,-9999,N/A,-9999,7.0,ESE,5.8,-,N/A,,Overcast,110,2013-01-04 19:19:00
11:48 AM,41.0,-9999,N/A,-9999,10.0,SE,4.6,-,N/A,,Overcast,130,2013-01-04 19:48:00
12:00 PM,41.0,41.0,100,30.32,10.0,ESE,4.6,-,N/A,,Light Drizzle,120,2013-01-04 20:00:00
12:08 PM,41.0,-9999,N/A,-9999,6.0,ESE,5.8,-,N/A,,Light Drizzle,120,2013-01-04 20:08:00
12:50 PM,42.8,-9999,N/A,-9999,8.0,ESE,4.6,-,N/A,,Light Drizzle,110,2013-01-04 20:50:00
1:00 PM,42.8,41.0,93,30.30,12.0,ESE,6.9,-,N/A,,Light Drizzle,110,2013-01-04 21:00:00
1:28 PM,42.8,-9999,N/A,-9999,15.0,ESE,5.8,-,N/A,,Overcast,110,2013-01-04 21:28:00
1:51 PM,42.8,-9999,N/A,-9999,15.0,East,5.8,-,N/A,,Light Drizzle,100,2013-01-04 21:51:00
2:00 PM,42.8,41.0,93,30.29,6.0,East,6.9,-,N/A,,Light Drizzle,100,2013-01-04 22:00:00
3:00 PM,42.8,41.0,93,30.29,7.0,ESE,5.8,-,N/A,,Light Drizzle,110,2013-01-04 23:00:00
3:10 PM,42.8,-9999,N/A,-9999,6.0,ESE,6.9,-,N/A,,Light Drizzle,110,2013-01-04 23:10:00
4:00 PM,42,41,94,30.29,3,ESE,6.9,,,Rain,Light Drizzle,110,2013-01-05 00:00:00
4:00 PM,42.8,41.0,93,30.29,3.0,ESE,6.9,-,N/A,,Light Drizzle,110,2013-01-05 00:00:00
5:00 PM,41.0,41.0,100,30.29,2.5,East,5.8,-,N/A,,Light Drizzle,100,2013-01-05 01:00:00
5:07 PM,42.8,-9999,N/A,-9999,3.0,ESE,6.9,-,N/A,,Light Drizzle,110,2013-01-05 01:07:00
5:44 PM,42.8,-9999,N/A,-9999,7.0,East,5.8,-,N/A,,Light Drizzle,90,2013-01-05 01:44:00
6:00 PM,42.8,41.0,93,30.27,12.0,East,6.9,-,N/A,,Light Drizzle,100,2013-01-05 02:00:00
6:36 PM,42.8,-9999,N/A,-9999,12.0,East,5.8,-,N/A,,Overcast,90,2013-01-05 02:36:00
7:00 PM,42.8,41.0,93,30.26,15.0,East,4.6,-,N/A,,Overcast,100,2013-01-05 03:00:00
8:00 PM,41.0,41.0,100,30.24,15.0,East,4.6,-,N/A,,Overcast,90,2013-01-05 04:00:00
9:00 PM,41.0,39.2,93,30.22,15.0,East,5.8,-,N/A,,Overcast,90,2013-01-05 05:00:00
10:00 PM,41,39,91,30.22,15,SSE,3.5,,,,Partly Cloudy,150,2013-01-05 06:00:00
10:00 PM,41.0,39.2,93,30.22,15.0,SSE,3.5,-,N/A,,Overcast,150,2013-01-05 06:00:00
11:00 PM,39.2,39.2,100,30.22,15.0,Calm,Calm,-,N/A,,Overcast,0,2013-01-05 07:00:00